Temperature
20 21 21 22 22 22 21 19 19 20 20 21 20 20 21 23 23 22 22 22 22 22 21 21 20 20 19 18 18 17 17 16 16 15 15 15 14 14 14 14 14 14 14 14
20 21 21 21 21 21 21 21 20 20 20 20 21 22 21 22 22 22 22 22 22 22 21 21 20 20 19 18 18 17 17 16 16 16 15 15 15 14 14 14 14 14 14 14
18 19 20 20 21 21 21 21 21 20 20 20 21 20 21 22 22 22 22 22 22 22 22 21 21 20 20 19 18 18 17 17 16 16 15 15 15 14 14 14 14 14 14 14
17 19 20 20 20 21 21 21 20 20 20 20 21 22 22 22 22 22 22 22 22 22 22 21 21 20 20 19 18 18 17 17 17 16 16 15 15 15 14 14 14 14 14 14
16 18 18 20 21 21 21 20 19 19 19 20 21 21 21 22 22 22 22 22 22 22 22 21 21 20 20 19 18 18 18 17 17 16 16 15 15 15 15 14 14 14 14 14
16 18 18 19 20 21 20 19 19 19 19 19 19 17 18 21 21 22 22 22 22 22 21 21 21 20 19 19 18 18 18 18 17 17 16 16 15 15 15 14 14 14 14 14
16 16 17 18 19 20 18 18 19 19 20 20 18 18 20 21 21 21 21 21 21 21 21 21 20 20 19 19 19 18 18 18 17 17 17 16 16 15 15 15 14 14 14 14
14 16 16 18 19 18 17 19 19 19 19 19 19 20 20 20 20 20 20 20 21 20 20 20 20 20 19 19 19 18 18 18 17 17 17 16 16 15 15 15 14 14 14 14
15 15 17 18 18 19 19 19 19 19 19 19 19 19 19 19 19 19 20 20 20 20 20 20 20 19 19 19 19 18 18 17 17 17 17 16 16 15 15 15 14 14 14 14
15 15 16 17 18 18 18 18 18 18 18 18 18 18 18 18 18 19 19 19 19 19 19 19 19 19 19 18 18 18 18 17 17 17 16 16 16 15 15 15 14 14 14 14
14 14 16 16 17 17 17 17 17 17 17 17 17 17 17 17 17 18 18 18 18 18 18 18 18 18 18 18 18 18 17 17 17 16 16 16 16 15 15 15 15 14 14 14
13 15 14 15 16 16 16 16 16 16 16 16 16 16 16 16 16 17 17 17 17 17 17 18 18 18 17 17 17 17 17 17 16 16 16 16 15 15 15 14 14 14 14 14
16 16 16 15 15 15 15 15 15 15 15 15 15 15 15 15 15 16 16 16 16 16 17 17 17 17 17 17 17 17 16 16 16 16 16 15 15 15 14 14 14 14 13 13
15 15 15 14 14 14 14 14 14 14 14 14 14 14 14 14 14 15 15 15 15 15 16 16 16 16 16 16 16 16 16 16 16 16 15 15 15 14 14 14 14 13 13 13
14 14 14 14 14 14 14 14 13 13 13 13 13 13 13 13 13 14 14 14 14 15 15 15 15 16 16 16 16 15 15 15 15 15 15 14 14 14 13 13 13 13 13 12
13 13 13 13 13 13 13 13 12 12 12 12 12 12 12 12 12 13 13 13 13 14 14 14 15 15 15 15 15 15 15 15 14 14 14 14 13 13 13 13 12 12 12 12
12 12 12 12 12 12 12 12 12 11 11 11 11 11 11 12 12 12 12 12 13 13 13 13 14 14 14 14 14 14 14 14 14 13 13 13 13 13 12 12 12 12 12 12
12 12 12 12 11 11 11 11 11 11 11 11 11 11 11 11 11 11 11 12 12 12 12 13 13 13 13 13 13 13 13 13 13 13 13 13 12 12 12 12 12 11 11 11
11 11 11 11 11 11 11 10 10 10 10 10 10 10 10 10 10 10 10 11 11 11 12 12 12 12 12 12 12 12 12 12 12 12 12 12 12 12 11 11 11 11 11 11
11 11 10 10 10 10 10 10 10 10 10 10 10 10 10 10 9 9 10 10 10 10 10 11 11 11 12 12 12 12 12 12 11 11 11 11 11 11 11 11 11 10 10 10
10 10 10 10 10 9 9 9 9 9 9 9 9 9 9 9 9 9 9 9 9 10 10 10 10 11 11 11 11 11 11 11 11 11 11 11 11 10 10 10 10 10 9 9
9 9 9 9 9 9 9 9 9 9 9 9 9 8 8 8 8 8 8 8 9 9 9 9 10 10 10 10 10 10 10 10 10 10 10 10 10 10 10 10 10 9 9 9
9 9 8 8 8 8 8 8 8 8 8 8 8 8 8 8 8 8 8 8 8 8 9 9 9 9 9 9 9 9 9 9 9 10 10 10 10 10 9 9 9 9 9 8
8 8 8 8 8 8 8 8 8 8 8 8 8 8 7 7 7 7 7 8 8 8 8 8 8 8 8 8 8 8 9 9 9 9 9 9 9 9 9 9 8 8 8 8
7 7 7 7 7 7 7 7 7 7 7 7 7 7 7 7 7 7 7 7 7 7 8 8 8 8 8 8 8 8 8 8 8 8 8 8 8 8 8 8 7 7 7 7
7 7 7 7 7 7 7 7 7 7 7 7 7 7 7 7 7 7 7 7 7 7 7 7 7 7 7 7 7 7 7 7 7 7 7 7 7 7 7 7 6 6 6 6
6 6 6 6 7 7 7 6 6 6 6 6 6 6 6 6 6 6 6 6 6 6 6 6 6 6 7 7 7 7 7 7 7 7 7 6 6 6 6 6 6 6 6 5
Wind_Speed
5 6 3 4 5 4 4 7 7 8 7 9 7 6 6 5 4 5 6 7 10 11 10 10 9 9 9 9 9 9 9 8 8 7 6 5 4 3 2 1 2 2 1 0
5 5 4 5 6 5 5 4 5 4 6 7 4 1 1 2 4 5 7 8 9 10 10 11 11 11 10 10 10 9 10 9 8 7 6 5 5 4 3 2 1 2 1 1
4 7 5 4 5 3 2 2 4 5 6 5 1 1 2 2 3 4 6 6 8 9 11 11 12 12 12 11 9 10 10 9 8 8 7 6 5 4 4 3 2 2 2 1
1 4 2 7 4 2 2 2 2 1 3 3 3 3 1 1 3 3 3 5 6 7 9 9 9 9 10 9 9 10 10 9 9 9 8 7 5 5 5 3 3 3 3 2
2 1 5 7 6 2 1 3 6 3 4 4 3 4 5 4 2 4 5 5 6 7 7 7 8 9 9 9 9 10 10 10 10 10 9 7 7 6 5 3 3 3 3 3
3 2 4 6 8 5 4 3 7 4 4 4 6 4 5 7 5 4 3 3 3 3 4 6 7 8 9 10 10 11 12 11 10 10 10 9 9 7 4 4 4 3 2 3
4 4 5 6 7 4 3 4 5 3 3 3 1 3 6 6 5 4 3 2 1 2 4 6 6 7 9 9 12 13 11 9 9 10 10 9 8 5 4 4 4 3 3 2
3 3 5 6 4 2 4 3 2 2 3 2 2 4 4 4 5 5 5 3 1 1 3 4 5 8 8 10 10 8 8 9 9 9 9 8 7 6 5 5 5 4 3 1
5 5 3 3 1 1 1 0 2 2 3 3 3 4 5 5 5 5 5 5 3 2 3 3 4 7 9 9 7 7 8 8 8 8 8 8 8 8 5 5 5 4 4 3
2 4 5 4 4 4 3 2 3 2 3 4 4 5 5 5 5 6 5 5 4 3 3 5 5 6 7 6 6 8 9 9 8 7 7 6 6 7 7 6 6 6 5 5
4 5 5 4 5 4 4 4 4 4 3 3 4 5 5 5 6 6 6 5 4 4 5 6 5 6 5 5 6 7 8 8 7 7 7 6 5 5 7 7 8 9 7 6
7 6 4 6 5 4 3 4 4 4 5 5 4 5 6 6 6 6 6 5 5 5 6 6 5 6 5 6 7 7 6 7 6 6 6 6 5 3 2 4 7 10 10 9
6 5 4 5 4 3 3 4 4 3 4 5 5 5 5 6 6 6 6 6 6 6 7 6 6 6 6 6 7 8 8 7 6 6 7 7 7 7 4 1 1 5 8 10
4 3 4 4 4 3 3 4 4 4 4 4 5 5 5 5 6 7 7 7 7 6 6 6 6 7 6 6 7 8 8 8 7 7 7 7 8 7 7 7 5 3 3 7
4 2 3 3 3 3 3 3 4 5 6 6 6 6 6 6 7 8 9 8 6 6 7 6 6 7 5 5 7 7 7 6 6 6 6 7 7 7 6 7 6 5 3 3
3 2 1 1 3 4 4 4 4 5 6 7 7 7 7 7 7 8 8 7 6 7 8 7 7 7 5 5 6 6 6 8 7 6 6 6 6 7 7 7 7 7 7 6
1 2 3 4 4 4 4 4 4 5 6 7 8 8 8 8 8 9 9 8 7 8 8 7 8 7 5 5 6 5 5 6 8 7 6 7 7 7 7 7 8 7 7 7
4 4 4 5 5 5 6 5 5 6 6 7 7 7 7 7 8 10 10 9 8 8 8 7 7 6 5 5 5 5 5 5 6 6 6 6 7 7 7 8 8 8 5 6
1 2 3 4 4 4 4 5 6 6 7 6 6 7 7 8 9 9 9 8 8 9 9 7 8 6 5 6 5 5 5 5 5 5 5 7 7 6 7 7 8 8 8 7
2 2 3 4 4 4 5 6 7 7 7 6 7 7 8 9 9 9 8 8 8 8 8 8 7 5 5 6 6 5 6 6 6 6 6 6 7 7 7 7 8 8 8 8
4 4 4 5 6 6 6 7 7 8 8 7 7 8 8 9 9 8 7 9 9 8 8 9 6 5 5 5 6 5 6 6 6 6 7 7 7 7 7 7 8 8 8 8
6 6 6 6 6 7 8 7 8 9 8 8 8 8 8 9 9 9 8 8 9 11 7 6 5 7 7 6 4 5 6 6 6 5 6 7 7 7 7 8 8 8 8 8
6 6 7 7 8 8 8 7 8 8 8 9 9 9 9 8 7 7 9 8 7 11 7 6 8 9 8 4 4 5 5 5 5 5 5 6 6 7 7 7 7 7 7 8
7 7 7 7 7 7 9 9 9 8 9 9 9 9 8 8 7 7 8 11 11 11 7 8 10 10 7 3 4 5 5 5 4 4 4 4 5 5 6 6 6 6 7 8
8 8 8 7 7 7 8 9 9 9 9 8 9 9 8 7 7 8 7 8 10 9 6 8 11 10 5 4 4 5 4 4 4 4 4 4 5 5 6 6 6 6 7 7
8 8 8 9 8 7 7 6 6 7 7 8 8 7 7 7 7 6 6 7 8 8 6 5 5 6 4 4 4 4 4 4 4 4 5 5 5 6 6 6 7 7 6 6
8 7 6 7 7 7 6 6 6 7 7 7 8 7 7 7 6 6 6 5 5 5 4 4 4 3 3 3 3 4 4 4 4 5 5 5 5 5 6 7 7 7 7 7
Wind_Direction
245 259 252 256 264 252 206 194 196 232 237 259 256 240 241 232 204 192 200 200 198 198 200 198 195 195 194 194 190 182 177 183 195 198 197 197 201 205 210 195 183 181 178 299
325 315 318 299 285 267 247 221 216 238 268 267 257 239 236 215 191 198 212 213 208 204 201 199 198 196 194 194 191 182 184 193 195 189 190 193 196 198 199 207 201 177 197 223
297 310 353 306 270 243 246 255 200 222 251 273 290 186 189 193 188 208 220 216 208 206 205 205 204 196 194 196 186 184 190 194 191 188 190 198 197 191 202 214 204 197 217 216
273 4 277 259 282 189 130 5 347 264 277 273 222 203 185 187 196 225 231 217 216 212 211 208 202 196 193 184 181 187 192 195 194 189 193 196 192 199 209 206 202 207 215 212
128 252 287 304 313 307 138 5 350 5 358 356 17 44 2 336 275 234 231 221 215 211 207 200 196 191 182 183 185 189 195 198 197 192 191 191 196 205 204 196 203 205 203 199
136 170 242 273 303 314 94 9 333 9 25 17 50 44 303 310 313 298 286 253 233 208 186 193 199 181 177 188 189 199 203 202 196 191 191 195 200 201 195 189 198 196 195 197
182 212 258 283 309 31 87 263 304 6 35 43 93 228 270 310 331 326 307 286 281 192 194 207 194 175 185 192 202 207 202 195 192 193 195 196 194 190 183 181 179 183 188 203
150 185 258 318 23 83 226 258 312 4 13 18 328 316 325 338 343 342 336 316 303 233 233 220 186 179 193 207 211 197 187 190 195 197 197 191 179 182 176 171 173 182 179 194
192 212 243 325 343 285 213 296 322 338 342 359 353 334 327 323 326 327 326 317 299 251 245 242 205 190 203 216 201 184 183 191 196 194 193 182 179 181 176 173 177 187 185 195
311 288 306 328 360 357 359 352 338 347 357 5 346 329 327 324 322 323 321 318 311 289 257 252 235 217 215 209 190 184 191 195 189 185 187 185 183 182 181 184 186 188 190 198
283 282 315 334 337 334 348 354 350 342 339 343 341 325 320 317 313 309 308 307 304 276 258 253 242 231 221 193 179 188 195 195 190 186 181 181 183 190 190 198 196 192 198 193
250 253 241 272 284 310 339 337 329 331 330 327 324 312 313 308 303 302 304 305 305 292 276 266 249 237 223 199 184 184 192 194 191 186 183 178 172 178 207 202 198 195 193 187
238 255 244 264 282 315 328 330 329 323 316 316 316 310 309 303 303 306 306 305 296 291 282 274 261 246 230 208 194 193 197 196 192 188 186 183 181 180 184 208 168 191 193 190
267 277 287 287 288 308 325 327 333 335 330 320 314 312 312 307 309 311 304 297 293 295 294 282 265 253 242 214 202 204 202 198 192 194 192 191 192 192 188 183 188 206 212 199
280 255 236 253 276 310 324 337 344 335 329 325 320 317 312 309 306 303 300 299 301 303 298 292 275 265 254 221 207 205 201 201 198 195 194 194 192 191 190 190 189 181 170 190
279 315 308 304 305 313 326 328 317 311 313 315 318 315 306 298 295 299 303 300 295 290 289 285 277 269 250 223 211 209 208 203 193 192 192 191 191 191 191 190 189 187 189 190
223 277 281 294 298 297 293 286 279 288 300 304 304 306 307 309 311 308 304 298 284 279 279 274 275 277 252 225 211 210 209 205 195 192 195 196 195 196 194 192 193 195 199 193
220 231 238 246 261 275 285 286 283 284 286 289 296 306 310 309 304 301 301 303 303 298 289 282 280 282 258 229 215 207 202 202 202 202 202 200 199 197 195 195 195 193 190 187
255 259 267 267 263 264 272 282 285 283 284 286 290 292 293 293 295 296 300 301 298 295 294 295 291 282 259 238 221 205 201 203 206 207 206 200 197 196 196 197 195 192 185 181
273 264 271 281 283 279 279 284 287 287 287 285 286 291 296 298 300 298 294 287 276 272 280 288 290 276 260 240 224 207 203 204 206 208 207 202 198 197 197 196 192 189 186 184
286 287 288 288 287 285 281 283 287 284 285 282 278 281 286 292 297 296 292 291 289 285 285 285 285 271 260 251 226 211 208 208 208 209 207 203 199 194 192 192 191 189 186 183
290 287 286 287 286 287 286 284 282 281 283 283 281 281 287 293 296 293 279 272 280 284 285 275 275 272 271 263 226 212 211 212 212 210 208 202 195 193 192 189 188 188 185 180
280 278 279 282 280 281 285 286 283 283 284 281 280 280 279 279 280 280 285 282 279 282 283 269 271 274 272 256 227 215 212 212 209 207 206 199 193 189 187 186 185 181 178 176
281 278 275 278 280 284 286 287 286 284 282 282 279 277 276 280 283 274 270 283 287 283 276 269 271 272 270 247 226 216 211 208 205 201 197 190 184 180 178 176 176 174 172 170
276 275 276 279 280 277 275 280 287 287 288 287 284 282 279 270 270 279 281 280 284 284 278 275 274 272 262 242 225 214 210 207 199 189 182 179 178 175 169 165 165 165 165 167
273 274 273 269 267 266 268 274 280 285 287 289 291 292 288 283 277 276 278 280 278 280 278 273 270 261 248 240 229 214 204 201 197 187 178 176 173 169 165 162 158 160 161 161
276 277 280 283 280 270 265 265 269 274 275 275 283 288 289 290 287 283 282 281 278 275 273 271 265 252 244 239 230 215 201 192 187 183 177 170 166 165 165 163 162 158 156 156
Height
1490 1485 1484 1483 1482 1480 1485 1490 1497 1490 1485 1477 1471 1469 1467 1466 1466 1467 1468 1469 1470 1471 1472 1474 1476 1478 1479 1481 1483 1485 1486 1487 1488 1488 1489 1490 1490 1490 1490 1490 1489 1489 1488 1487
1491 1483 1483 1483 1479 1478 1478 1479 1482 1481 1480 1469 1466 1466 1466 1465 1465 1465 1466 1466 1467 1468 1470 1471 1473 1474 1476 1478 1480 1482 1483 1484 1486 1486 1487 1488 1488 1488 1489 1488 1488 1488 1487 1486
1501 1491 1486 1491 1480 1477 1477 1474 1476 1481 1476 1467 1466 1465 1465 1465 1464 1464 1464 1464 1465 1466 1467 1468 1470 1471 1473 1475 1477 1479 1480 1481 1483 1484 1485 1485 1486 1487 1487 1487 1487 1486 1486 1485
1503 1498 1502 1489 1472 1471 1474 1474 1472 1471 1469 1466 1465 1464 1464 1464 1464 1464 1463 1464 1464 1464 1465 1466 1467 1469 1471 1473 1474 1476 1477 1478 1480 1481 1482 1483 1484 1484 1485 1485 1485 1485 1485 1484
1506 1505 1499 1484 1474 1472 1474 1477 1473 1471 1469 1466 1465 1464 1464 1464 1464 1463 1463 1462 1462 1462 1463 1464 1465 1466 1468 1469 1471 1472 1474 1475 1476 1478 1479 1480 1481 1481 1482 1483 1483 1483 1483 1483
1504 1504 1505 1490 1474 1469 1472 1482 1475 1472 1470 1468 1466 1472 1469 1465 1463 1462 1461 1461 1461 1461 1461 1462 1462 1463 1464 1466 1467 1468 1470 1471 1473 1474 1476 1477 1478 1479 1480 1480 1481 1481 1481 1481
1502 1503 1496 1482 1474 1471 1488 1488 1476 1473 1471 1469 1469 1470 1468 1465 1463 1461 1460 1459 1459 1459 1459 1459 1460 1461 1461 1462 1463 1464 1466 1468 1470 1471 1472 1473 1475 1476 1476 1477 1478 1478 1478 1479
1502 1504 1500 1480 1476 1481 1483 1477 1475 1473 1471 1470 1469 1467 1465 1464 1462 1460 1459 1458 1457 1456 1456 1457 1457 1458 1458 1458 1459 1461 1463 1464 1466 1467 1468 1470 1471 1472 1473 1474 1475 1475 1475 1476
1493 1493 1483 1480 1479 1478 1477 1476 1474 1473 1471 1469 1468 1466 1464 1462 1461 1459 1458 1456 1455 1454 1453 1454 1454 1454 1454 1455 1456 1457 1458 1460 1461 1463 1464 1465 1467 1468 1469 1470 1471 1471 1472 1472
1488 1483 1481 1479 1478 1477 1476 1475 1474 1472 1470 1468 1467 1465 1463 1461 1459 1457 1456 1454 1452 1451 1450 1450 1450 1450 1451 1451 1452 1453 1454 1455 1456 1458 1459 1460 1462 1463 1464 1465 1466 1467 1468 1468
1487 1482 1479 1478 1478 1476 1475 1474 1472 1470 1469 1467 1465 1463 1461 1459 1457 1455 1453 1452 1450 1448 1447 1446 1446 1446 1446 1447 1448 1448 1449 1450 1451 1453 1454 1455 1456 1458 1459 1460 1461 1462 1463 1464
1484 1479 1479 1477 1475 1474 1472 1471 1470 1468 1466 1465 1463 1461 1459 1456 1454 1452 1450 1448 1446 1444 1443 1442 1441 1441 1441 1442 1442 1443 1444 1444 1446 1447 1448 1450 1451 1452 1454 1455 1457 1458 1459 1460
1476 1475 1474 1473 1472 1471 1470 1468 1466 1465 1463 1461 1459 1458 1455 1453 1451 1448 1446 1444 1442 1440 1439 1438 1437 1436 1436 1437 1437 1438 1438 1439 1440 1441 1442 1444 1445 1447 1448 1450 1451 1453 1454 1456
1473 1472 1471 1470 1469 1468 1466 1464 1463 1461 1459 1458 1455 1453 1451 1449 1446 1444 1442 1440 1438 1436 1434 1433 1432 1431 1431 1431 1432 1432 1433 1434 1434 1435 1437 1438 1439 1441 1442 1444 1445 1447 1449 1451
1469 1468 1468 1467 1466 1464 1462 1460 1458 1457 1455 1453 1451 1449 1446 1444 1442 1440 1437 1435 1433 1431 1429 1428 1426 1425 1425 1426 1426 1426 1427 1427 1428 1430 1431 1432 1434 1435 1437 1438 1440 1441 1443 1445
1466 1465 1464 1463 1461 1460 1458 1457 1455 1453 1451 1449 1447 1444 1442 1440 1437 1435 1433 1430 1428 1425 1424 1422 1421 1420 1420 1420 1419 1420 1420 1421 1423 1424 1425 1426 1428 1429 1431 1432 1434 1435 1437 1439
1463 1461 1460 1459 1458 1456 1455 1453 1451 1449 1447 1445 1443 1440 1438 1435 1432 1430 1427 1425 1423 1421 1419 1417 1415 1414 1414 1413 1413 1413 1414 1415 1416 1418 1419 1420 1422 1423 1425 1427 1428 1430 1432 1434
1459 1458 1457 1456 1454 1452 1451 1449 1447 1445 1443 1441 1438 1436 1433 1430 1428 1425 1422 1420 1417 1415 1413 1412 1410 1409 1408 1407 1407 1407 1408 1408 1410 1411 1412 1414 1415 1417 1419 1421 1422 1424 1426 1428
1455 1455 1454 1452 1451 1449 1447 1445 1443 1441 1439 1436 1434 1431 1428 1426 1423 1420 1417 1414 1412 1409 1407 1406 1404 1403 1402 1401 1402 1401 1402 1402 1403 1405 1406 1408 1410 1411 1413 1415 1417 1419 1420 1422
1452 1451 1450 1448 1447 1445 1443 1441 1439 1436 1434 1431 1429 1426 1423 1420 1417 1414 1412 1409 1406 1404 1402 1400 1398 1397 1396 1396 1395 1395 1395 1396 1397 1398 1400 1401 1403 1404 1406 1408 1411 1412 1414 1416
1449 1447 1445 1444 1442 1440 1438 1436 1434 1431 1429 1426 1424 1421 1417 1414 1412 1409 1406 1402 1400 1398 1396 1394 1392 1391 1390 1390 1389 1389 1389 1390 1391 1392 1393 1395 1397 1398 1400 1402 1404 1407 1409 1411
1445 1443 1441 1439 1437 1435 1433 1430 1429 1426 1423 1421 1418 1415 1412 1409 1406 1403 1400 1398 1395 1393 1390 1388 1386 1385 1385 1384 1384 1383 1384 1384 1384 1386 1387 1389 1390 1392 1394 1396 1399 1401 1403 1406
1440 1438 1436 1434 1432 1430 1427 1425 1423 1421 1418 1415 1412 1409 1406 1403 1400 1397 1394 1392 1390 1387 1385 1382 1381 1380 1379 1378 1378 1378 1378 1378 1379 1380 1381 1383 1385 1386 1388 1391 1393 1396 1398 1400
1436 1434 1431 1429 1427 1425 1422 1420 1418 1415 1413 1409 1407 1404 1401 1397 1394 1392 1389 1386 1384 1381 1379 1377 1376 1375 1374 1373 1373 1373 1373 1373 1374 1375 1376 1378 1379 1381 1384 1386 1388 1390 1393 1396
1431 1429 1426 1424 1421 1419 1416 1414 1412 1409 1407 1403 1400 1398 1395 1392 1389 1385 1383 1380 1378 1376 1373 1372 1370 1369 1369 1368 1368 1368 1368 1369 1370 1371 1372 1373 1375 1377 1379 1381 1383 1386 1388 1391
1424 1422 1420 1418 1416 1413 1411 1408 1406 1403 1400 1397 1394 1392 1389 1386 1383 1380 1377 1375 1372 1370 1368 1367 1365 1364 1364 1363 1363 1363 1364 1365 1366 1367 1369 1370 1372 1373 1375 1378 1380 1383 1385 1387
1418 1416 1414 1412 1409 1407 1405 1403 1400 1397 1394 1391 1388 1385 1383 1380 1377 1374 1372 1369 1367 1365 1364 1362 1361 1360 1359 1359 1359 1359 1360 1361 1362 1363 1365 1367 1368 1370 1372 1375 1377 1380 1382 1384